Regional Weather Roundup
Issued by NWS

Home | Current Version | Previous Version | Text Only | Print | Product List | Glossary Off
Versions: 1 2 3 4 5 6 7 8 9 10 11 12 13 14 15 16 17 18 19 20 21 22 23 24 25 26 27 28 29 30 31 32 33 34 35 36 37 38 39 40 41 42 43 44 45 46 47 48 49 50

902
ASUS44 KLIX 291501
RWRLA
LOUISIANA WEATHER ROUNDUP
NATIONAL WEATHER SERVICE NEW ORLEANS LA
1000 AM CDT FRI AUG 29 2014

NOTE: "FAIR" INDICATES FEW OR NO CLOUDS BELOW 12,000 FEET WITH NO
      SIGNIFICANT WEATHER AND/OR OBSTRUCTIONS TO VISIBILITY.
      SKY/WX - SKY CONDITION AND SIGNIFICANT WEATHER.
      TMP - AIR TEMPERATURE.    DP   - DEWPOINT TEMPERATURE.
      RH  - RELATIVE HUMIDITY.  PRES - PRESSURE.
      HX  - HEAT INDEX.         WCI  - WIND CHILL INDEX.

*  THESE STATIONS ARE NOT NWS OR FAA STATIONS AND ARE NOT UNDER
   NWS QUALITY CONTROL.

LAZ040-048-061>063-065-066-069-291600-
SOUTHEAST LOUISIANA

CITY           SKY/WX    TMP DP  RH WIND       PRES   REMARKS
N.O. AUDUBON     N/A     87  76  69 MISG        N/A  HX  98
N.O. INTL ARPT PTSUNNY   88  75  65 E7        29.96R HX  97
N.O. LAKEFRONT PTSUNNY   85  76  74 E13       29.97R
N.O. DOWNTOWN* FAIR      88  72  58 SE7       29.97R
SLIDELL        MOSUNNY   86  74  67 E8        29.99R
BATON ROUGE    MOSUNNY   86  75  69 E7        29.97R HX  95
BOOTHVILLE     PTSUNNY   88  79  74 E10       29.97R HX 103
BELLE CHASSE   PTSUNNY   87  76  69 E9        29.96R HX  97
BOGALUSA*        N/A     87  73  61 SE7       30.01R
GALLIANO*      NOT AVBL
NEW ROADS*     FAIR      85  75  73 E8        29.97R
GONZALES*      FAIR      85  79  81 E3        29.96R HX  98
HAMMOND*       NOT AVBL
HOUMA*         MOSUNNY   84  75  74 NE6       29.94R
PORT FOURCHON* CLOUDY    84  77  79 NE18      29.92F

$$

LAZ041-044-053-054-291600-
SOUTHWEST LOUISIANA

CITY           SKY/WX    TMP DP  RH WIND       PRES   REMARKS
LAKE CHARLES   PTSUNNY   84  76  76 E13       29.94R
LAFAYETTE      PTSUNNY   83  76  79 VRB6      29.97R
PATTERSON        N/A     81  79  94 CALM      29.98S
SALT POINT       N/A     80  74  81 VRB5      29.97R
NEW IBERIA     CLOUDY    84  77  79 SE9       29.98R
CHENAULT AIRPK SUNNY     82  75  78 E10G16    29.95R

$$

LAZ027-028-291600-
CENTRAL LOUISIANA

CITY           SKY/WX    TMP DP  RH WIND       PRES   REMARKS
FORT POLK      PTSUNNY   82  73  74 SE9       29.95R
ALEXANDRIA INT MOSUNNY   85  73  67 SE14      29.94R
ALEXANDRIA     SUNNY     86  73  65 SE12      29.96R

$$

LAZ001-002-291600-
NORTHWEST LOUISIANA

CITY           SKY/WX    TMP DP  RH WIND       PRES   REMARKS
SHREVEPORT     MOSUNNY   87  70  56 S10       29.94S
BARKSDALE AFB  SUNNY     86  72  61 S5        29.94S
DTN SHREVEPORT SUNNY     85  71  63 SE8       29.94S

$$

LAZ014-016-291600-
NORTHEAST LOUISIANA

CITY           SKY/WX    TMP DP  RH WIND       PRES   REMARKS
MONROE         SUNNY     85  74  69 CALM      29.96F
TALLULAH       SUNNY     86  72  62 CALM      29.97F

$$




USA.gov is the U.S. government's official web portal to all federal, state and local government web resources and services.